West Paducah, KY

4:15 PM CST on February 23, 2017 (GMT -0600)
Barkley Regional

Weather History for KPAH - April, 2013

Change the Weather History Date:

Saturday, April 27, 2013

  Actual Average Record
Temperature  
Mean Temperature 56 °F 62 °F  
Max Temperature 61 °F 73 °F 89 °F (1989)
Min Temperature 50 °F 50 °F 36 °F (1946)
Degree Days  
Heating Degree Days 9 5  
Month to date heating degree days 285 230  
Since 1 July heating degree days 4111 4049  
Cooling Degree Days 0 2  
Month to date cooling degree days 31 32  
Year to date cooling degree days 31 39  
Growing Degree Days 6 (Base 50)    
Moisture  
Dew Point 54 °F    
Average Humidity 97    
Maximum Humidity 100    
Minimum Humidity 93    
Precipitation  
Precipitation 0.74 in 0.17 in 2.83 in (1985)
Month to date precipitation 5.37 4.25  
Year to date precipitation 21.14 15.77  
Snow  
Snow 0.00 in 0.00 in 0.00 in (2002)
Month to date snowfall 0.0 0.0  
Since 1 July snowfall 6.8 9.1  
Snow Depth 0.00 in    
Sea Level Pressure  
Sea Level Pressure 30.07 in    
Wind  
Wind Speed 5 mph (East)    
Max Wind Speed 16 mph    
Max Gust Speed 22 mph    
Visibility 5 miles    
Events Rain    
T = Trace of Precipitation, MM = Missing Value Source: NWS Daily Summary

Daily Weather History Graph

Daily Weather History Graph

Search for Another Location

Airport or City:

Trip Planner

Search our weather history database for the weather conditions in past years. The results will help you decide how hot, cold, wet, or windy it might be!

Date:

Astronomy

Apr. 27, 2013 Rise Set
Actual Time 6:05 AM CDT 7:40 PM CDT
Civil Twilight 5:37 AM CDT 8:08 PM CDT
Nautical Twilight 5:04 AM CDT 8:41 PM CDT
Astronomical Twilight 4:29 AM CDT 9:17 PM CDT
Moon 10:07 PM CDT (4/27) 7:25 AM CDT (4/27)
Length of Visible Light 14h 31m
Length of Day
13h 35m
Waning Gibbous, 95% of the Moon is Illuminated
Apr 27
Waning Gibbous
May 2
Last Quarter
May 9
New
May 17
First Quarter
May 24
Full

Hourly Weather History & Observations

Time (CDT) Temp. Dew Point Humidity Pressure Visibility Wind Dir Wind Speed Gust Speed Precip Events Conditions
12:53 AM 50.0 °F 48.0 °F 93% 30.30 in 4.0 mi East 4.6 mph - 0.00 in Rain Light Rain
1:16 AM 50.0 °F 48.2 °F 94% 30.28 in 5.0 mi ESE 5.8 mph - 0.00 in   Overcast
1:53 AM 50.0 °F 48.0 °F 93% 30.26 in 5.0 mi East 5.8 mph - 0.00 in   Overcast
2:53 AM 50.0 °F 48.9 °F 96% 30.27 in 6.0 mi NNW 4.6 mph - 0.00 in   Overcast
3:53 AM 50.0 °F 48.9 °F 96% 30.19 in 4.0 mi East 5.8 mph - 0.06 in Rain Light Rain
4:18 AM 50.0 °F 48.2 °F 94% 30.21 in 4.0 mi NNE 5.8 mph - 0.02 in Rain Light Rain
4:53 AM 50.0 °F 48.9 °F 96% 30.20 in 5.0 mi ENE 4.6 mph - 0.04 in Rain Light Rain
5:53 AM 50.0 °F 48.9 °F 96% 30.19 in 8.0 mi East 5.8 mph - 0.00 in Rain Light Rain
6:53 AM 51.1 °F 48.9 °F 92% 30.20 in 5.0 mi ENE 4.6 mph - N/A   Overcast
7:26 AM 51.8 °F 50.0 °F 94% 30.18 in 5.0 mi East 8.1 mph - N/A   Overcast
7:53 AM 52.0 °F 50.0 °F 93% 30.14 in 6.0 mi East 12.7 mph - N/A   Overcast
8:53 AM 52.0 °F 51.1 °F 97% 30.18 in 5.0 mi ESE 6.9 mph - 0.00 in Rain Light Rain
9:08 AM 51.8 °F 51.8 °F 100% 30.18 in 2.0 mi East 4.6 mph - 0.04 in Rain Rain
9:30 AM 51.8 °F 51.8 °F 100% 30.20 in 1.5 mi NW 3.5 mph - 0.13 in Rain Heavy Rain
9:50 AM 51.8 °F 51.8 °F 100% 30.16 in 1.8 mi East 9.2 mph - 0.23 in Rain Rain
9:51 AM 52.0 °F 51.1 °F 97% 30.17 in 1.8 mi East 9.2 mph - 0.23 in Rain Rain
9:59 AM 51.8 °F 51.8 °F 100% 30.14 in 2.0 mi East 11.5 mph - 0.03 in Rain Rain
10:16 AM 51.8 °F 51.8 °F 100% 30.09 in 2.5 mi East 16.1 mph 20.7 mph 0.07 in Rain Rain
10:24 AM 53.6 °F 51.8 °F 94% 30.09 in 4.0 mi East 16.1 mph - 0.08 in Rain Light Rain
10:39 AM 53.6 °F 51.8 °F 94% 30.10 in 8.0 mi ESE 12.7 mph - 0.09 in Rain Light Rain
10:51 AM 53.6 °F 51.8 °F 94% 30.13 in 10.0 mi SE 11.5 mph - 0.09 in   Overcast
10:53 AM 54.0 °F 52.0 °F 93% 30.13 in 10.0 mi SE 10.4 mph - 0.09 in   Overcast
11:53 AM 55.9 °F 53.1 °F 90% 30.11 in 10.0 mi SE 11.5 mph - N/A   Overcast
12:53 PM 57.0 °F 55.0 °F 93% 30.09 in 10.0 mi SE 8.1 mph - N/A   Overcast
1:53 PM 59.0 °F 55.9 °F 90% 30.07 in 8.0 mi SSE 6.9 mph - 0.00 in Rain Light Rain
2:53 PM 59.0 °F 55.9 °F 90% 30.03 in 10.0 mi SE 8.1 mph - 0.00 in   Overcast
3:53 PM 60.1 °F 57.0 °F 90% 30.01 in 9.0 mi SSE 5.8 mph - 0.00 in Rain Light Rain
4:53 PM 60.1 °F 57.0 °F 90% 29.98 in 9.0 mi SSE 5.8 mph - 0.01 in   Overcast
5:41 PM 60.8 °F 57.2 °F 88% 29.96 in 2.5 mi SSE 4.6 mph - 0.03 in Rain Light Rain
5:49 PM 60.8 °F 57.2 °F 88% 29.95 in 4.0 mi East 4.6 mph - 0.03 in Rain Rain
5:53 PM 60.1 °F 57.9 °F 93% 29.96 in 3.0 mi South 3.5 mph - 0.04 in Rain Light Rain
6:00 PM 60.8 °F 57.2 °F 88% 29.97 in 5.0 mi Calm Calm - 0.01 in Rain Light Rain
6:14 PM 60.8 °F 57.2 °F 88% 29.95 in 1.8 mi NNE 3.5 mph - 0.05 in Rain Light Rain
6:30 PM 59.0 °F 57.2 °F 94% 29.96 in 3.0 mi NE 3.5 mph - 0.17 in Rain Light Rain
6:53 PM 59.0 °F 57.9 °F 96% 29.95 in 4.0 mi ENE 3.5 mph - 0.17 in Rain Light Rain
7:37 PM 59.0 °F 57.2 °F 94% 29.93 in 2.5 mi Calm Calm - 0.02 in Rain Light Rain
7:45 PM 59.0 °F 57.2 °F 94% 29.93 in 3.0 mi Calm Calm - 0.02 in Rain Light Rain
7:50 PM 59.0 °F 57.2 °F 94% 29.93 in 1.8 mi Calm Calm - 0.04 in Rain Heavy Rain
7:53 PM 59.0 °F 57.0 °F 93% 29.93 in 1.8 mi East 3.5 mph - 0.05 in Rain Heavy Rain
8:00 PM 57.2 °F 57.2 °F 100% 29.92 in 3.0 mi East 4.6 mph - 0.04 in Rain Light Rain
8:21 PM 57.2 °F 57.2 °F 100% 29.92 in 4.0 mi ESE 6.9 mph - 0.04 in   Overcast
8:39 PM 57.2 °F 57.2 °F 100% 29.93 in 4.0 mi Calm Calm - 0.04 in Rain Light Rain
8:53 PM 57.9 °F 57.0 °F 97% 29.92 in 4.0 mi ESE 3.5 mph - 0.05 in   Overcast
9:21 PM 59.0 °F 57.2 °F 94% 29.91 in 5.0 mi Calm Calm - N/A   Overcast
9:53 PM 59.0 °F 57.0 °F 93% 29.91 in 5.0 mi Calm Calm - N/A   Overcast
10:53 PM 57.9 °F 57.0 °F 97% 29.90 in 5.0 mi Calm Calm - N/A   Overcast
11:53 PM 59.0 °F 57.0 °F 93% 29.90 in 2.0 mi Calm Calm - N/A   Overcast